User: anonymous   Login
Location: Caltech
(34.1382°N, 118.1253°W)
Time: 21:24:01
(UTC-07:00)
Language:

SEDSat Delta rocket - Orbit

View from above orbital plane
View from above orbital plane
View from above satellite
View from above satellite

Ground track
Ground track

The orbit data is extracted from the following two-line orbital elements,

1 25510U 98061C   15184.74955324  .00000781  00000-0  12530-3 0  9995
2 25510 031.4362 276.5481 0330088 227.5099 275.9880 14.36650414874476
Epoch (UTC): 03 July 2015 17:59:21
Eccentricity: 0.0330088
inclination: 31.4362°
perigee height: 533 km
apogee height: 1005 km
right ascension of ascending node: 276.5481°
argument of perigee: 227.5099°
revolutions per day: 14.36650414
mean anomaly at epoch: 275.9880°
orbit number at epoch: 87447

The dashed part of the orbit path shows where the satellite is in the earth's shadow,  

DLR